User: anonymous   Login
Location: Unspecified
(0.0000°N, 0.0000°E)
Time: 01:36:13
(UTC+02:00)
Language:

Cosmos 1758 - Orbit

View from above orbital plane
View from above orbital plane
View from above satellite
View from above satellite

Ground track
Ground track

The orbit data is extracted from the following two-line orbital elements,

1 16791U 86046A   15108.86339093  .00004616  00000-0  34223-3 0  9998
2 16791 082.4696 081.3668 0015431 255.3702 104.5813 15.02797462566902
Epoch (UTC): 18 April 2015 20:43:16
Eccentricity: 0.0015431
inclination: 82.4696°
perigee height: 547 km
apogee height: 569 km
right ascension of ascending node: 81.3668°
argument of perigee: 255.3702°
revolutions per day: 15.02797462
mean anomaly at epoch: 104.5813°
orbit number at epoch: 56690

The dashed part of the orbit path shows where the satellite is in the earth's shadow,  

DLR